| time (UTC) | temp F | wind direction | speed knots | gust knots | rain 1hr in | rain 24hr in | rain mn in | humidity % | barometer mb |
| 20260507180023 | 54 | 11 | 0.0 | 0.9 | 0.01 | 0.06 | 0.00 | 37 | 1009.9 |
| 20260507174523 | 54 | 78 | 0.9 | 3.5 | 0.01 | 0.06 | 0.06 | 32 | 1009.6 |
| 20260507173038 | 54 | 359 | 0.0 | 2.6 | 0.02 | 0.06 | 0.06 | 34 | 1010.2 |
| 20260507171523 | 54 | 248 | 0.0 | 0.9 | 0.02 | 0.06 | 0.06 | 33 | 1010.4 |
| 20260507170013 | 53 | 354 | 0.0 | 0.9 | 0.01 | 0.05 | 0.05 | 36 | 1010.3 |
| 20260507164516 | 53 | 1 | 0.0 | 3.5 | 0.01 | 0.05 | 0.05 | 45 | 1010.4 |
| 20260507163007 | 54 | 335 | 0.9 | 3.5 | 0.00 | 0.04 | 0.04 | 50 | 1010.8 |
| 20260507161505 | 55 | 24 | 0.9 | 3.5 | 0.00 | 0.04 | 0.04 | 42 | 1010.7 |
| 20260507160003 | 56 | 359 | 0.0 | 0.0 | 0.00 | 0.04 | 0.04 | 29 | 1010.5 |
| 20260507154602 | 56 | 295 | 0.0 | 3.5 | 0.00 | 0.07 | 0.04 | 28 | 1010.7 |
| 20260507153101 | 56 | 313 | 0.0 | 0.0 | 0.00 | 0.07 | 0.04 | 28 | 1010.8 |
| 20260507151603 | 56 | 354 | 0.0 | 0.0 | 0.00 | 0.07 | 0.04 | 30 | 1010.2 |
| 20260507150057 | 56 | 104 | 0.0 | 0.9 | 0.00 | 0.07 | 0.04 | 29 | 1010.5 |
| 20260507144525 | 56 | 34 | 0.0 | 2.6 | 0.01 | 0.07 | 0.04 | 28 | 1010.5 |
| 20260507143023 | 57 | 1 | 0.0 | 0.0 | 0.01 | 0.07 | 0.04 | 25 | 1010.0 |
| 20260507141558 | 57 | 10 | 0.0 | 3.5 | 0.01 | 0.07 | 0.04 | 24 | 1010.4 |
| 20260507140049 | 58 | 317 | 0.0 | 0.0 | 0.01 | 0.07 | 0.04 | 21 | 1010.9 |
| 20260507134551 | 58 | 1 | 0.0 | 2.6 | 0.00 | 0.06 | 0.03 | 20 | 1010.6 |
| 20260507133118 | 58 | 127 | 0.0 | 0.0 | 0.00 | 0.06 | 0.03 | 20 | 1010.4 |
| 20260507131547 | 58 | 253 | 0.0 | 0.0 | 0.00 | 0.06 | 0.03 | 20 | 1010.2 |
| 20260507130058 | 58 | 229 | 0.0 | 0.0 | 0.00 | 0.06 | 0.03 | 20 | 1010.0 |
| 20260507124513 | 57 | 357 | 0.0 | 0.0 | 0.00 | 0.06 | 0.03 | 20 | 1010.4 |
| 20260507123015 | 57 | 39 | 0.0 | 1.7 | 0.00 | 0.06 | 0.03 | 20 | 1009.9 |
| 20260507121510 | 57 | 44 | 0.0 | 2.6 | 0.00 | 0.06 | 0.03 | 20 | 1009.6 |
| 20260507120009 | 0 | 0.0 | 0.0 | 0.00 | 0.06 | 0.03 | 1010.2 | ||
| 20260507114504 | 0 | 0.0 | 0.0 | 0.00 | 0.06 | 0.03 | 1010.3 | ||
| 20260507113059 | 0 | 0.0 | 0.0 | 0.00 | 0.06 | 0.03 | 1009.7 | ||
| 20260507111552 | 0 | 0.0 | 0.0 | 0.00 | 0.06 | 0.03 | 1009.6 | ||
| 20260507110047 | 0 | 0.0 | 0.0 | 0.00 | 0.06 | 0.03 | 1009.5 | ||
| 20260507104543 | 0 | 0.0 | 0.0 | 0.00 | 0.06 | 0.03 | 1009.7 | ||
| 20260507103044 | 0 | 0.0 | 0.0 | 0.00 | 0.06 | 0.03 | 1008.6 | ||
| 20260507101506 | 0 | 0.0 | 0.0 | 0.00 | 0.06 | 0.03 | 1008.8 | ||
| 20260507100100 | 0 | 0.0 | 0.0 | 0.00 | 0.06 | 0.03 | 1008.5 | ||
| 20260507094559 | 0 | 0.0 | 0.0 | 0.00 | 0.06 | 0.03 | 1008.6 | ||
| 20260507093049 | 0 | 0.0 | 0.0 | 0.01 | 0.06 | 0.03 | 1008.8 | ||
| 20260507091546 | 66 | 159 | 0.0 | 0.0 | 0.01 | 0.06 | 0.03 | 13 | 1008.9 |
| 20260507090045 | 67 | 165 | 0.0 | 0.0 | 0.01 | 0.06 | 0.03 | 12 | 1009.2 |
| 20260507084514 | 67 | 165 | 0.0 | 0.0 | 0.01 | 0.06 | 0.03 | 13 | 1008.4 |
| 20260507083013 | 67 | 165 | 0.0 | 0.0 | 0.00 | 0.05 | 0.02 | 13 | 1008.3 |
| 20260507081509 | 67 | 165 | 0.0 | 0.0 | 0.00 | 0.05 | 0.02 | 13 | 1008.0 |
| 20260507080007 | 67 | 165 | 0.0 | 0.0 | 0.00 | 0.05 | 0.02 | 14 | 1008.0 |
| 20260507074506 | 67 | 179 | 0.0 | 0.0 | 0.00 | 0.05 | 0.02 | 15 | 1008.2 |
| 20260507073005 | 67 | 183 | 0.0 | 0.0 | 0.00 | 0.05 | 0.02 | 15 | 1008.1 |
| 20260507071503 | 67 | 183 | 0.0 | 0.0 | 0.00 | 0.05 | 0.02 | 16 | 1008.4 |
| 20260507070002 | 67 | 286 | 0.0 | 0.0 | 0.00 | 0.05 | 0.02 | 17 | 1008.8 |
| 20260507064501 | 67 | 171 | 0.0 | 1.7 | 0.00 | 0.05 | 0.02 | 19 | 1008.4 |
| 20260507063101 | 67 | 168 | 0.0 | 0.0 | 0.00 | 0.05 | 0.02 | 21 | 1008.3 |
| 20260507061557 | 67 | 147 | 0.0 | 0.0 | 0.01 | 0.05 | 0.02 | 24 | 1008.6 |
| 20260507060059 | 67 | 196 | 0.0 | 0.0 | 0.02 | 0.05 | 0.02 | 27 | 1008.7 |
| 20260507054553 | 67 | 170 | 0.0 | 0.0 | 0.02 | 0.05 | 0.02 | 33 | 1008.6 |
| 20260507053058 | 68 | 167 | 0.0 | 0.0 | 0.02 | 0.05 | 0.02 | 42 | 1008.7 |
| 20260507051546 | 68 | 184 | 0.0 | 0.0 | 0.01 | 0.04 | 0.01 | 52 | 1009.3 |
| 20260507050046 | 69 | 225 | 0.0 | 3.5 | 0.00 | 0.03 | 0.00 | 58 | 1009.4 |
| 20260507044558 | 69 | 176 | 0.0 | 1.7 | 0.00 | 0.03 | 0.00 | 60 | 1009.8 |
| 20260507043048 | 69 | 172 | 0.0 | 0.0 | 0.00 | 0.03 | 0.00 | 60 | 1010.0 |
| 20260507041545 | 69 | 221 | 0.0 | 0.0 | 0.00 | 0.03 | 0.00 | 61 | 1010.2 |
| 20260507040044 | 69 | 165 | 0.0 | 0.0 | 0.00 | 0.03 | 0.00 | 62 | 1009.7 |
| 20260507034544 | 69 | 211 | 0.0 | 0.0 | 0.00 | 0.03 | 0.00 | 62 | 1009.3 |
| 20260507033050 | 69 | 175 | 0.0 | 0.0 | 0.00 | 0.03 | 0.00 | 60 | 1009.1 |
| 20260507031553 | 68 | 186 | 0.0 | 0.0 | 0.00 | 0.03 | 0.00 | 56 | 1009.2 |
| 20260507030055 | 67 | 165 | 0.0 | 0.0 | 0.00 | 0.03 | 0.00 | 53 | 1009.3 |
| 20260507024559 | 67 | 165 | 0.0 | 0.0 | 0.00 | 0.03 | 0.00 | 55 | 1009.2 |
| 20260507023036 | 68 | 165 | 0.0 | 0.0 | 0.00 | 0.03 | 0.00 | 57 | 1009.3 |
| 20260507021537 | 68 | 165 | 0.0 | 0.0 | 0.00 | 0.03 | 0.00 | 57 | 1009.2 |
| 20260507020040 | 68 | 177 | 0.0 | 0.0 | 0.00 | 0.03 | 0.00 | 54 | 1009.6 |
| 20260507014542 | 67 | 155 | 0.0 | 0.0 | 0.00 | 0.03 | 0.00 | 51 | 1009.5 |
| 20260507013037 | 67 | 174 | 0.0 | 0.0 | 0.00 | 0.00 | 0.00 | 55 | 1009.4 |
| 20260507011534 | 68 | 174 | 0.0 | 0.0 | 0.00 | 0.03 | 0.00 | 60 | 1009.3 |
| 20260507010029 | 68 | 174 | 0.0 | 0.0 | 0.00 | 0.03 | 0.00 | 63 | 1009.1 |
| 20260507004523 | 69 | 174 | 0.0 | 0.0 | 0.00 | 0.03 | 0.00 | 65 | 1009.1 |
| 20260507003022 | 69 | 176 | 0.0 | 0.0 | 0.00 | 0.03 | 0.00 | 67 | 1009.2 |
| 20260507001527 | 70 | 158 | 0.0 | 0.0 | 0.00 | 0.03 | 0.00 | 69 | 1009.1 |
| 20260507000054 | 70 | 197 | 0.0 | 0.0 | 0.00 | 0.03 | 0.00 | 70 | 1009.6 |
| 20260506234604 | 70 | 178 | 0.0 | 0.0 | 0.00 | 0.03 | 0.00 | 70 | 1009.3 |
| 20260506233052 | 71 | 162 | 0.0 | 0.0 | 0.00 | 0.03 | 0.00 | 71 | 1009.1 |
| 20260506231554 | 72 | 166 | 0.0 | 0.0 | 0.00 | 0.03 | 0.00 | 71 | 1009.0 |
| 20260506230047 | 72 | 168 | 0.0 | 0.0 | 0.00 | 0.03 | 0.00 | 71 | 1009.2 |
| 20260506224547 | 72 | 201 | 0.0 | 0.0 | 0.00 | 0.03 | 0.00 | 71 | 1009.1 |
| 20260506223044 | 73 | 210 | 0.0 | 0.0 | 0.00 | 0.03 | 0.00 | 71 | 1009.0 |
| 20260506221545 | 73 | 164 | 0.0 | 0.9 | 0.00 | 0.03 | 0.00 | 71 | 1009.0 |
| 20260506220043 | 74 | 179 | 0.0 | 0.0 | 0.00 | 0.03 | 0.00 | 70 | 1008.8 |
| 20260506214545 | 74 | 208 | 0.0 | 0.0 | 0.00 | 0.03 | 0.00 | 70 | 1008.9 |
| 20260506213040 | 75 | 170 | 0.0 | 0.0 | 0.00 | 0.03 | 0.00 | 69 | 1009.0 |
| 20260506211534 | 73 | 224 | 0.0 | 0.0 | 0.00 | 0.03 | 0.00 | 70 | 1009.1 |
| 20260506210034 | 72 | 183 | 0.0 | 2.6 | 0.00 | 0.03 | 0.00 | 70 | 1009.0 |
| 20260506204530 | 72 | 167 | 0.0 | 1.7 | 0.00 | 0.03 | 0.00 | 70 | 1008.8 |
| 20260506203058 | 72 | 159 | 0.9 | 5.2 | 0.00 | 0.03 | 0.00 | 70 | 1008.9 |
| 20260506201558 | 72 | 193 | 0.9 | 4.3 | 0.00 | 0.03 | 0.00 | 70 | 1008.8 |
| 20260506200054 | 72 | 148 | 0.9 | 4.3 | 0.00 | 0.03 | 0.00 | 70 | 1008.3 |
| 20260506194553 | 72 | 191 | 1.7 | 4.3 | 0.00 | 0.03 | 0.00 | 70 | 1008.2 |
| 20260506193049 | 72 | 156 | 1.7 | 8.7 | 0.00 | 0.03 | 0.00 | 70 | 1008.6 |
| 20260506191548 | 71 | 212 | 1.7 | 5.2 | 0.00 | 0.03 | 0.00 | 70 | 1008.7 |
| 20260506190043 | 71 | 155 | 1.7 | 5.2 | 0.00 | 0.03 | 0.00 | 70 | 1009.2 |
| 20260506184546 | 71 | 162 | 1.7 | 5.2 | 0.00 | 0.03 | 0.00 | 70 | 1009.6 |
| 20260506183034 | 70 | 195 | 1.7 | 4.3 | 0.00 | 0.03 | 0.00 | 70 | 1010.4 |
| 20260506181532 | 69 | 206 | 0.9 | 4.3 | 0.00 | 0.03 | 0.00 | 68 | 1010.9 |